,,Stat5,,Stat1,,Stat2,,Stat3,,Stat4,,Wind1,,Wind1,
time,status,PA1M_AVG,status,PR1M_SUM,status,RH1M_AVG,status,SR1M_AVG,status,TA1M_AVG,status,W1dAve1m,status,W1sAve1m,
2002-05-23, 00:00:00,VALID,920.657,VALID,0,VALID,98.8533,VALID,0.0169808,VALID,19.1439,VALID,104,VALID,1.0332,
2002-05-23, 00:01:00,VALID,920.657,VALID,0,VALID,98.8545,VALID,0.0339617,VALID,19.1506,VALID,114,VALID,1.08088,
2002-05-23, 00:02:00,VALID,920.661,VALID,0,VALID,98.8825,VALID,0.0339617,VALID,19.1626,VALID,125,VALID,0.645633,
2002-05-23, 00:03:00,VALID,920.65,VALID,0,VALID,98.81,VALID,0.0339617,VALID,19.1564,VALID,119,VALID,1.08654,
2002-05-23, 00:04:00,VALID,920.643,VALID,0,VALID,98.7897,VALID,0,VALID,19.1635,VALID,113,VALID,0.89383,
2002-05-23, 00:05:00,VALID,920.637,VALID,0,VALID,98.7973,VALID,0.0169808,VALID,19.1538,VALID,114,VALID,0.95558,
2002-05-23, 00:06:00,VALID,920.646,VALID,0,VALID,98.8202,VALID,0.0339617,VALID,19.1601,VALID,117,VALID,1.03336,
2002-05-23, 00:07:00,VALID,920.651,VALID,0,VALID,98.8126,VALID,0.0169808,VALID,19.1668,VALID,113,VALID,1.04551,
2002-05-23, 00:08:00,VALID,920.651,VALID,0,VALID,98.81,VALID,0.0169808,VALID,19.1727,VALID,102,VALID,0.922476,
2002-05-23, 00:09:00,VALID,920.665,VALID,0,VALID,98.8177,VALID,0,VALID,19.17,VALID,97,VALID,1.00561,
2002-05-23, 00:10:00,VALID,920.666,VALID,0,VALID,98.8215,VALID,0.0509425,VALID,19.1628,VALID,91,VALID,1.16575,
2002-05-23, 00:11:00,VALID,920.662,VALID,0,VALID,98.8266,VALID,0,VALID,19.1762,VALID,93,VALID,1.24918,
2002-05-23, 00:12:00,VALID,920.663,VALID,0,VALID,98.8304,VALID,0.0679233,VALID,19.1725,VALID,83,VALID,1.06562,
2002-05-23, 00:13:00,VALID,920.626,VALID,0,VALID,98.8469,VALID,0.0169808,VALID,19.2055,VALID,79,VALID,1.17268,
2002-05-23, 00:14:00,VALID,920.602,VALID,0,VALID,98.8494,VALID,0,VALID,19.1921,VALID,77,VALID,1.09949,
2002-05-23, 00:15:00,VALID,920.575,VALID,0,VALID,98.8685,VALID,0.0339617,VALID,19.1896,VALID,84,VALID,1.05284,
2002-05-23, 00:16:00,VALID,920.542,VALID,0,VALID,98.8927,VALID,0.0169808,VALID,19.1861,VALID,80,VALID,0.931588,
2002-05-23, 00:17:00,VALID,920.51,VALID,0,VALID,98.9448,VALID,0,VALID,19.1829,VALID,81,VALID,1.18902,
2002-05-23, 00:18:00,VALID,920.474,VALID,0,VALID,98.9563,VALID,0.0169808,VALID,19.1767,VALID,92,VALID,1.07487,
2002-05-23, 00:19:00,VALID,920.447,VALID,0,VALID,98.9728,VALID,0.0169808,VALID,19.1601,VALID,109,VALID,1.02796,
2002-05-23, 00:20:00,VALID,920.416,VALID,0,VALID,99.0135,VALID,0,VALID,19.1601,VALID,112,VALID,1.12141,
2002-05-23, 00:21:00,VALID,920.377,VALID,0,VALID,99.0351,VALID,0.0339617,VALID,19.173,VALID,115,VALID,1.18862,
2002-05-23, 00:22:00,VALID,920.336,VALID,0,VALID,99.0682,VALID,0.0339617,VALID,19.1864,VALID,126,VALID,0.756546,
2002-05-23, 00:23:00,VALID,920.308,VALID,0,VALID,99.0783,VALID,0,VALID,19.1854,VALID,115,VALID,0.871795,
2002-05-23, 00:24:00,VALID,920.261,VALID,0,VALID,99.0872,VALID,-0.0339617,VALID,19.1836,VALID,134,VALID,0.580273,
2002-05-23, 00:25:00,VALID,920.254,VALID,0,VALID,99.1,VALID,-0.101885,VALID,19.1809,VALID,134,VALID,0.50601,
2002-05-23, 00:26:00,VALID,920.229,VALID,0,VALID,99.1038,VALID,-0.0679233,VALID,19.1871,VALID,149,VALID,0.473558,
2002-05-23, 00:27:00,VALID,920.216,VALID,0,VALID,99.1114,VALID,-0.101885,VALID,19.2104,VALID,125,VALID,0.775223,
2002-05-23, 00:28:00,VALID,920.184,VALID,0,VALID,99.0936,VALID,-0.101885,VALID,19.1938,VALID,112,VALID,1.18047,
2002-05-23, 00:29:00,VALID,920.185,VALID,0,VALID,99.0885,VALID,-0.0679233,VALID,19.1848,VALID,109,VALID,1.49978,
2002-05-23, 00:30:00,VALID,920.178,VALID,0,VALID,99.105,VALID,-0.0849042,VALID,19.1719,VALID,119,VALID,1.2572,
2002-05-23, 00:31:00,VALID,920.197,VALID,0,VALID,99.1241,VALID,-0.101885,VALID,19.165,VALID,126,VALID,1.28167,
2002-05-23, 00:32:00,VALID,920.2,VALID,0,VALID,99.1559,VALID,-0.0849042,VALID,19.1848,VALID,135,VALID,0.82278,
2002-05-23, 00:33:00,VALID,920.206,VALID,0,VALID,99.1699,VALID,-0.0849042,VALID,19.1911,VALID,137,VALID,1.08368,
2002-05-23, 00:34:00,VALID,920.216,VALID,0,VALID,99.1902,VALID,-0.0849042,VALID,19.1973,VALID,131,VALID,0.722128,
2002-05-23, 00:35:00,VALID,920.206,VALID,0,VALID,99.2017,VALID,-0.101885,VALID,19.197,VALID,131,VALID,1.06691,
2002-05-23, 00:36:00,VALID,920.185,VALID,0,VALID,99.189,VALID,-0.0849042,VALID,19.2005,VALID,136,VALID,0.967928,
2002-05-23, 00:37:00,VALID,920.179,VALID,0,VALID,99.2068,VALID,-0.101885,VALID,19.2072,VALID,136,VALID,1.0601,
2002-05-23, 00:38:00,VALID,920.16,VALID,0,VALID,99.2131,VALID,-0.0509425,VALID,19.2134,VALID,142,VALID,0.862179,
2002-05-23, 00:39:00,VALID,920.165,VALID,0,VALID,99.2233,VALID,-0.0849042,VALID,19.2065,VALID,144,VALID,0.842348,
2002-05-23, 00:40:00,VALID,920.153,VALID,0,VALID,99.2119,VALID,-0.101885,VALID,19.2072,VALID,152,VALID,1.16544,
2002-05-23, 00:41:00,VALID,920.132,VALID,0,VALID,99.2271,VALID,-0.118866,VALID,19.2072,VALID,144,VALID,1.39371,
2002-05-23, 00:42:00,VALID,920.114,VALID,0,VALID,99.2258,VALID,-0.101885,VALID,19.2005,VALID,140,VALID,1.29223,
2002-05-23, 00:43:00,VALID,920.089,VALID,0,VALID,99.2309,VALID,-0.101885,VALID,19.1908,VALID,142,VALID,1.23828,
2002-05-23, 00:44:00,VALID,920.077,VALID,0,VALID,99.222,VALID,-0.101885,VALID,19.1816,VALID,143,VALID,1.32791,
2002-05-23, 00:45:00,VALID,920.063,VALID,0,VALID,99.2347,VALID,-0.101885,VALID,19.1814,VALID,144,VALID,1.12952,
2002-05-23, 00:46:00,VALID,920.052,VALID,0,VALID,99.2449,VALID,-0.0849042,VALID,19.1913,VALID,147,VALID,1.14126,
2002-05-23, 00:47:00,VALID,920.031,VALID,0,VALID,99.2513,VALID,-0.0679233,VALID,19.1876,VALID,143,VALID,1.0317,
2002-05-23, 00:48:00,VALID,920.014,VALID,0,VALID,99.2538,VALID,-0.0679233,VALID,19.1941,VALID,127,VALID,0.794341,
2002-05-23, 00:49:00,VALID,920.009,VALID,0,VALID,99.2602,VALID,-0.0679233,VALID,19.1739,VALID,137,VALID,1.23117,
2002-05-23, 00:50:00,VALID,919.991,VALID,0,VALID,99.2437,VALID,-0.0509425,VALID,19.1645,VALID,144,VALID,1.2709,
2002-05-23, 00:51:00,VALID,919.957,VALID,0,VALID,99.25,VALID,-0.101885,VALID,19.1583,VALID,121,VALID,0.893429,
2002-05-23, 00:52:00,VALID,919.938,VALID,0,VALID,99.2398,VALID,-0.101885,VALID,19.1525,VALID,107,VALID,1.02404,
2002-05-23, 00:53:00,VALID,919.895,VALID,0,VALID,99.2309,VALID,-0.0849042,VALID,19.126,VALID,90,VALID,0.992411,
2002-05-23, 00:54:00,VALID,919.873,VALID,0,VALID,99.2157,VALID,-0.0169808,VALID,19.1188,VALID,102,VALID,1.00352,
2002-05-23, 00:55:00,VALID,919.829,VALID,0,VALID,99.189,VALID,-0.0169808,VALID,19.1056,VALID,94,VALID,0.993273,
2002-05-23, 00:56:00,VALID,919.799,VALID,0,VALID,99.1953,VALID,-0.0169808,VALID,19.1345,VALID,87,VALID,0.766447,
2002-05-23, 00:57:00,VALID,919.767,VALID,0,VALID,99.1724,VALID,0,VALID,19.1345,VALID,97,VALID,0.88598,
2002-05-23, 00:58:00,VALID,919.731,VALID,0,VALID,99.147,VALID,0,VALID,19.164,VALID,101,VALID,0.835732,
2002-05-23, 00:59:00,VALID,919.721,VALID,0,VALID,99.1241,VALID,0,VALID,19.1476,VALID,104,VALID,0.665502,
2002-05-23, 01:00:00,VALID,919.695,VALID,0,VALID,99.0987,VALID,-0.0339617,VALID,19.1409,VALID,109,VALID,1.04286,
2002-05-23, 01:01:00,VALID,919.679,VALID,0,VALID,99.0847,VALID,-0.0169808,VALID,19.1442,VALID,107,VALID,1.14764,
2002-05-23, 01:02:00,VALID,919.651,VALID,0,VALID,99.0478,VALID,-0.0339617,VALID,19.1483,VALID,114,VALID,1.27858,
2002-05-23, 01:03:00,VALID,919.631,VALID,0,VALID,99.0453,VALID,-0.0169808,VALID,19.1349,VALID,110,VALID,0.834736,
2002-05-23, 01:04:00,VALID,919.61,VALID,0,VALID,99.0389,VALID,-0.0339617,VALID,19.1444,VALID,106,VALID,0.856771,
2002-05-23, 01:05:00,VALID,919.573,VALID,0,VALID,99.0237,VALID,-0.0169808,VALID,19.1347,VALID,118,VALID,0.899038,
2002-05-23, 01:06:00,VALID,919.554,VALID,0,VALID,99.0122,VALID,0,VALID,19.1349,VALID,113,VALID,0.901425,
2002-05-23, 01:07:00,VALID,919.508,VALID,0,VALID,98.9868,VALID,-0.0169808,VALID,19.1215,VALID,103,VALID,0.872533,
2002-05-23, 01:08:00,VALID,919.466,VALID,0,VALID,99.0122,VALID,-0.0339617,VALID,19.128,VALID,75,VALID,0.699324,
2002-05-23, 01:09:00,VALID,919.425,VALID,0,VALID,99.0084,VALID,0,VALID,19.1536,VALID,71,VALID,0.923177,
2002-05-23, 01:10:00,VALID,919.399,VALID,0,VALID,98.9486,VALID,0.0849042,VALID,19.1462,VALID,64,VALID,1.00195,
2002-05-23, 01:11:00,VALID,919.377,VALID,0,VALID,98.9461,VALID,0.0679233,VALID,19.1367,VALID,45,VALID,0.978618,
2002-05-23, 01:12:00,VALID,919.346,VALID,0,VALID,98.9575,VALID,0.0509425,VALID,19.1529,VALID,51,VALID,0.843117,
2002-05-23, 01:13:00,VALID,919.345,VALID,0,VALID,98.9436,VALID,0.0679233,VALID,19.1427,VALID,35,VALID,0.767187,
2002-05-23, 01:14:00,VALID,919.339,VALID,0,VALID,98.9156,VALID,0.0849042,VALID,19.1589,VALID,45,VALID,0.759502,
2002-05-23, 01:15:00,VALID,919.333,VALID,0,VALID,98.9105,VALID,0.0849042,VALID,19.1653,VALID,37,VALID,0.826322,
2002-05-23, 01:16:00,VALID,919.329,VALID,0,VALID,98.8355,VALID,0.101885,VALID,19.1494,VALID,55,VALID,0.794141,
2002-05-23, 01:17:00,VALID,919.308,VALID,0,VALID,98.8151,VALID,0.0849042,VALID,19.1464,VALID,48,VALID,0.463542,
2002-05-23, 01:18:00,VALID,919.305,VALID,0,VALID,98.8062,VALID,0.101885,VALID,19.1459,VALID,51,VALID,0.635016,
2002-05-23, 01:19:00,VALID,919.283,VALID,0,VALID,98.8062,VALID,0.0849042,VALID,19.1688,VALID,45,VALID,0.323884,
2002-05-23, 01:20:00,VALID,919.26,VALID,0,VALID,98.7821,VALID,0.118866,VALID,19.1882,VALID,54,VALID,0.542188,
2002-05-23, 01:21:00,VALID,919.239,VALID,0,VALID,98.7643,VALID,0.101885,VALID,19.1748,VALID,57,VALID,0.49197,
2002-05-23, 01:22:00,VALID,919.223,VALID,0,VALID,98.7617,VALID,0.101885,VALID,19.1874,VALID,55,VALID,0.445107,
2002-05-23, 01:23:00,VALID,919.201,VALID,0,VALID,98.7871,VALID,0.0849042,VALID,19.217,VALID,33,VALID,0.575591,
2002-05-23, 01:24:00,VALID,919.195,VALID,0,VALID,98.7782,VALID,0.0169808,VALID,19.2209,VALID,32,VALID,0.769737,
2002-05-23, 01:25:00,VALID,919.174,VALID,0,VALID,98.7134,VALID,0,VALID,19.2113,VALID,43,VALID,1.0625,
2002-05-23, 01:26:00,VALID,919.136,VALID,0,VALID,98.6244,VALID,-0.0169808,VALID,19.1832,VALID,53,VALID,1.05785,
2002-05-23, 01:27:00,VALID,919.109,VALID,0,VALID,98.6435,VALID,0,VALID,19.164,VALID,63,VALID,0.917067,
2002-05-23, 01:28:00,VALID,919.082,VALID,0,VALID,98.6638,VALID,-0.0509425,VALID,19.1414,VALID,82,VALID,0.858758,
2002-05-23, 01:29:00,VALID,919.04,VALID,0,VALID,98.6549,VALID,-0.0339617,VALID,19.1213,VALID,84,VALID,0.840545,
2002-05-23, 01:30:00,VALID,919.019,VALID,0,VALID,98.6752,VALID,-0.0169808,VALID,19.1059,VALID,94,VALID,0.828726,
2002-05-23, 01:31:00,VALID,918.984,VALID,0,VALID,98.7248,VALID,0,VALID,19.093,VALID,105,VALID,0.768429,
2002-05-23, 01:32:00,VALID,918.96,VALID,0,VALID,98.791,VALID,-0.0169808,VALID,19.0863,VALID,137,VALID,0.518382,
2002-05-23, 01:33:00,VALID,918.94,VALID,0,VALID,98.8545,VALID,-0.0169808,VALID,19.0989,VALID,123,VALID,0.626234,
2002-05-23, 01:34:00,VALID,918.922,VALID,0,VALID,98.9079,VALID,0,VALID,19.1248,VALID,122,VALID,0.95777,
2002-05-23, 01:35:00,VALID,918.912,VALID,0,VALID,98.9181,VALID,-0.0169808,VALID,19.1442,VALID,118,VALID,0.67296,
2002-05-23, 01:36:00,VALID,918.904,VALID,0,VALID,98.9054,VALID,0,VALID,19.1534,VALID,110,VALID,0.392361,
2002-05-23, 01:37:00,VALID,918.897,VALID,0,VALID,98.9194,VALID,0,VALID,19.1638,VALID,94,VALID,0.565995,
2002-05-23, 01:38:00,VALID,918.878,VALID,0,VALID,98.9219,VALID,-0.0169808,VALID,19.1702,VALID,74,VALID,0.706926,
2002-05-23, 01:39:00,VALID,918.858,VALID,0,VALID,98.8927,VALID,0,VALID,19.173,VALID,88,VALID,0.848661,
2002-05-23, 01:40:00,VALID,918.851,VALID,0,VALID,98.899,VALID,-0.0169808,VALID,19.1665,VALID,78,VALID,0.482686,
2002-05-23, 01:41:00,VALID,918.841,VALID,0,VALID,98.9181,VALID,0,VALID,19.1894,VALID,31,VALID,0.290665,
2002-05-23, 01:42:00,VALID,918.833,VALID,0,VALID,98.913,VALID,0,VALID,19.1859,VALID,37,VALID,0.225977,
2002-05-23, 01:43:00,VALID,918.84,VALID,0,VALID,98.8762,VALID,0,VALID,19.1769,VALID,81,VALID,0.513622,
2002-05-23, 01:44:00,VALID,918.837,VALID,0,VALID,98.8787,VALID,-0.0339617,VALID,19.1707,VALID,76,VALID,0.347556,
2002-05-23, 01:45:00,VALID,918.831,VALID,0,VALID,98.8978,VALID,-0.0339617,VALID,19.1633,VALID,69,VALID,0.534821,
2002-05-23, 01:46:00,VALID,918.816,VALID,0,VALID,98.8736,VALID,-0.0169808,VALID,19.1635,VALID,73,VALID,0.712695,
2002-05-23, 01:47:00,VALID,918.813,VALID,0,VALID,98.8329,VALID,-0.0169808,VALID,19.1573,VALID,80,VALID,0.962023,
2002-05-23, 01:48:00,VALID,918.776,VALID,0,VALID,98.8329,VALID,-0.0509425,VALID,19.1576,VALID,84,VALID,0.941201,
2002-05-23, 01:49:00,VALID,918.761,VALID,0,VALID,98.7922,VALID,-0.0339617,VALID,19.1312,VALID,94,VALID,0.586782,
2002-05-23, 01:50:00,VALID,918.739,VALID,0,VALID,98.7795,VALID,-0.0679233,VALID,19.1382,VALID,102,VALID,0.996916,
2002-05-23, 01:51:00,VALID,918.696,VALID,0,VALID,98.7668,VALID,-0.0169808,VALID,19.1317,VALID,106,VALID,0.899877,
2002-05-23, 01:52:00,VALID,918.661,VALID,0,VALID,98.7541,VALID,-0.0169808,VALID,19.1379,VALID,112,VALID,0.958193,
2002-05-23, 01:53:00,VALID,918.626,VALID,0,VALID,98.7375,VALID,-0.0679233,VALID,19.1444,VALID,115,VALID,1.00881,
2002-05-23, 01:54:00,VALID,918.6,VALID,0,VALID,98.749,VALID,-0.0679233,VALID,19.1605,VALID,112,VALID,0.763363,
2002-05-23, 01:55:00,VALID,918.572,VALID,0,VALID,98.7248,VALID,-0.0509425,VALID,19.1802,VALID,119,VALID,0.798277,
2002-05-23, 01:56:00,VALID,918.135,VALID,0,VALID,98.6803,VALID,-0.0339617,VALID,19.1864,VALID,99,VALID,1.02764,
2002-05-23, 01:57:00,VALID,918.536,VALID,0,VALID,98.6587,VALID,-0.0849042,VALID,19.1963,VALID,95,VALID,0.886418,
2002-05-23, 01:58:00,VALID,918.52,VALID,0,VALID,98.618,VALID,0,VALID,19.206,VALID,102,VALID,1.06572,
2002-05-23, 01:59:00,VALID,918.503,VALID,0,VALID,98.6028,VALID,-0.0679233,VALID,19.203,VALID,96,VALID,0.636513,
2002-05-23, 02:00:00,VALID,918.502,VALID,0,VALID,98.5786,VALID,-0.0509425,VALID,19.2229,VALID,97,VALID,0.776605,
2002-05-23, 02:01:00,VALID,918.497,VALID,0,VALID,98.5354,VALID,-0.0339617,VALID,19.2092,VALID,105,VALID,1.11328,
2002-05-23, 02:02:00,VALID,918.492,VALID,0,VALID,98.5341,VALID,-0.0339617,VALID,19.206,VALID,109,VALID,0.561632,
2002-05-23, 02:03:00,VALID,918.501,VALID,0,VALID,98.5354,VALID,-0.0509425,VALID,19.206,VALID,117,VALID,0.589844,
2002-05-23, 02:04:00,VALID,918.492,VALID,0,VALID,98.5455,VALID,-0.0509425,VALID,19.2028,VALID,129,VALID,0.58826,
2002-05-23, 02:05:00,VALID,918.478,VALID,0,VALID,98.5621,VALID,-0.0169808,VALID,19.2092,VALID,143,VALID,0.558929,
2002-05-23, 02:06:00,VALID,918.474,VALID,0,VALID,98.5862,VALID,-0.0509425,VALID,19.2192,VALID,135,VALID,0.283784,
2002-05-23, 02:07:00,VALID,918.458,VALID,0,VALID,98.5633,VALID,0,VALID,19.2217,VALID,111,VALID,0.538261,
2002-05-23, 02:08:00,VALID,918.441,VALID,0,VALID,98.5265,VALID,0,VALID,19.2152,VALID,106,VALID,0.464844,
2002-05-23, 02:09:00,VALID,918.435,VALID,0,VALID,98.5087,VALID,-0.0509425,VALID,19.2058,VALID,127,VALID,0.677284,
2002-05-23, 02:10:00,VALID,918.433,VALID,0,VALID,98.5265,VALID,-0.0169808,VALID,19.1956,VALID,132,VALID,0.375401,
2002-05-23, 02:11:00,VALID,918.424,VALID,0,VALID,98.5735,VALID,-0.0339617,VALID,19.2187,VALID,169,VALID,0.568527,
2002-05-23, 02:12:00,VALID,918.423,VALID,0,VALID,98.5964,VALID,-0.0339617,VALID,19.2249,VALID,171,VALID,0.44375,
2002-05-23, 02:13:00,VALID,918.432,VALID,0,VALID,98.5557,VALID,-0.0509425,VALID,19.2249,VALID,157,VALID,0.977865,
2002-05-23, 02:14:00,VALID,918.441,VALID,0,VALID,98.5697,VALID,-0.0169808,VALID,19.2152,VALID,148,VALID,0.522204,
2002-05-23, 02:15:00,VALID,918.451,VALID,0,VALID,98.5824,VALID,-0.0679233,VALID,19.209,VALID,149,VALID,0.379434,
2002-05-23, 02:16:00,VALID,918.445,VALID,0,VALID,98.6104,VALID,-0.0509425,VALID,19.2192,VALID,169,VALID,0.128495,
2002-05-23, 02:17:00,VALID,918.44,VALID,0,VALID,98.6816,VALID,-0.0509425,VALID,19.2254,VALID,173,VALID,0.0139803,
2002-05-23, 02:18:00,VALID,918.444,VALID,0,VALID,98.6803,VALID,-0.0509425,VALID,19.2351,VALID,178,VALID,0.348395,
2002-05-23, 02:19:00,VALID,918.431,VALID,0,VALID,98.6765,VALID,-0.0849042,VALID,19.2286,VALID,199,VALID,0.384215,
2002-05-23, 02:20:00,VALID,918.429,VALID,0,VALID,98.6651,VALID,-0.0679233,VALID,19.2189,VALID,229,VALID,0.633635,
2002-05-23, 02:21:00,VALID,918.436,VALID,0,VALID,98.6918,VALID,-0.0509425,VALID,19.2155,VALID,237,VALID,0.737179,
2002-05-23, 02:22:00,VALID,918.431,VALID,0,VALID,98.7197,VALID,-0.0169808,VALID,19.206,VALID,213,VALID,0.861979,
2002-05-23, 02:23:00,VALID,918.444,VALID,0,VALID,98.7236,VALID,-0.0339617,VALID,19.1832,VALID,179,VALID,0.565304,
2002-05-23, 02:24:00,VALID,918.443,VALID,0,VALID,98.7299,VALID,-0.0509425,VALID,19.1735,VALID,170,VALID,0.6983,
2002-05-23, 02:25:00,VALID,918.443,VALID,0,VALID,98.7274,VALID,-0.0679233,VALID,19.1608,VALID,163,VALID,0.57278,
2002-05-23, 02:26:00,VALID,918.439,VALID,0,VALID,98.7782,VALID,-0.0339617,VALID,19.1474,VALID,162,VALID,0.893581,
2002-05-23, 02:27:00,VALID,918.435,VALID,0,VALID,98.791,VALID,0,VALID,19.1471,VALID,149,VALID,0.906684,
2002-05-23, 02:28:00,VALID,918.412,VALID,0,VALID,98.8253,VALID,-0.0509425,VALID,19.1511,VALID,127,VALID,0.619792,
2002-05-23, 02:29:00,VALID,918.411,VALID,0,VALID,98.8533,VALID,-0.0339617,VALID,19.1511,VALID,118,VALID,0.702303,
2002-05-23, 02:30:00,VALID,918.409,VALID,0,VALID,98.8393,VALID,-0.0339617,VALID,19.1576,VALID,139,VALID,0.186867,
2002-05-23, 02:31:00,VALID,918.395,VALID,0,VALID,98.8431,VALID,-0.0339617,VALID,19.1407,VALID,99,VALID,0.500223,
2002-05-23, 02:32:00,VALID,918.382,VALID,0,VALID,98.8355,VALID,-0.0339617,VALID,19.1409,VALID,94,VALID,0.322002,
2002-05-23, 02:33:00,VALID,918.37,VALID,0,VALID,98.8673,VALID,0,VALID,19.1568,VALID,84,VALID,0.544471,
2002-05-23, 02:34:00,VALID,918.369,VALID,0,VALID,98.8596,VALID,-0.0169808,VALID,19.1534,VALID,95,VALID,0.503125,
2002-05-23, 02:35:00,VALID,918.358,VALID,0,VALID,98.866,VALID,-0.0339617,VALID,19.1509,VALID,93,VALID,0.582732,
2002-05-23, 02:36:00,VALID,918.356,VALID,0,VALID,98.8622,VALID,0,VALID,19.1672,VALID,93,VALID,0.604567,
2002-05-23, 02:37:00,VALID,918.333,VALID,0,VALID,98.8545,VALID,-0.0169808,VALID,19.1702,VALID,82,VALID,0.389732,
2002-05-23, 02:38:00,VALID,918.33,VALID,0,VALID,98.8227,VALID,-0.0679233,VALID,19.1762,VALID,91,VALID,0.51875,
2002-05-23, 02:39:00,VALID,918.315,VALID,0,VALID,98.8037,VALID,-0.0339617,VALID,19.1762,VALID,71,VALID,0.261068,
2002-05-23, 02:40:00,VALID,918.305,VALID,0,VALID,98.7617,VALID,0,VALID,19.1998,VALID,82,VALID,0.596423,
2002-05-23, 02:41:00,VALID,918.287,VALID,0,VALID,98.7248,VALID,-0.0169808,VALID,19.1864,VALID,86,VALID,0.524493,
2002-05-23, 02:42:00,VALID,918.257,VALID,0,VALID,98.6562,VALID,0,VALID,19.1896,VALID,99,VALID,0.788035,
2002-05-23, 02:43:00,VALID,918.255,VALID,0,VALID,98.6244,VALID,-0.0169808,VALID,19.1725,VALID,92,VALID,0.712582,
2002-05-23, 02:44:00,VALID,918.251,VALID,0,VALID,98.5761,VALID,0,VALID,19.1832,VALID,96,VALID,0.698902,
2002-05-23, 02:45:00,VALID,918.243,VALID,0,VALID,98.5036,VALID,-0.0169808,VALID,19.1961,VALID,105,VALID,0.731971,
2002-05-23, 02:46:00,VALID,918.24,VALID,0,VALID,98.4171,VALID,-0.0169808,VALID,19.1924,VALID,98,VALID,0.67352,
2002-05-23, 02:47:00,VALID,918.256,VALID,0,VALID,98.3434,VALID,0,VALID,19.1861,VALID,94,VALID,0.620994,
2002-05-23, 02:48:00,VALID,918.265,VALID,0,VALID,98.3001,VALID,-0.0339617,VALID,19.2155,VALID,87,VALID,0.53105,
2002-05-23, 02:49:00,VALID,918.25,VALID,0,VALID,98.2442,VALID,-0.0339617,VALID,19.2314,VALID,69,VALID,0.743389,
2002-05-23, 02:50:00,VALID,918.227,VALID,0,VALID,98.1641,VALID,0,VALID,19.2406,VALID,52,VALID,0.824678,
2002-05-23, 02:51:00,VALID,918.2,VALID,0,VALID,98.1297,VALID,-0.0339617,VALID,19.2406,VALID,31,VALID,1.00946,
2002-05-23, 02:52:00,VALID,918.177,VALID,0,VALID,98.0941,VALID,-0.0509425,VALID,19.2512,VALID,21,VALID,1.12943,
2002-05-23, 02:53:00,VALID,918.159,VALID,0,VALID,97.9873,VALID,0,VALID,19.2085,VALID,20,VALID,0.896701,
2002-05-23, 02:54:00,VALID,918.127,VALID,0,VALID,98.0153,VALID,-0.0169808,VALID,19.1765,VALID,22,VALID,0.799696,
2002-05-23, 02:55:00,VALID,918.096,VALID,0,VALID,98.0649,VALID,-0.0849042,VALID,19.1618,VALID,23,VALID,0.606086,
2002-05-23, 02:56:00,VALID,918.064,VALID,0,VALID,98.1539,VALID,-0.101885,VALID,19.165,VALID,46,VALID,0.637035,
2002-05-23, 02:57:00,VALID,918.038,VALID,0,VALID,98.2111,VALID,-0.0509425,VALID,19.1449,VALID,58,VALID,0.391964,
2002-05-23, 02:58:00,VALID,918.022,VALID,0,VALID,98.2251,VALID,-0.0339617,VALID,19.1352,VALID,84,VALID,0.447424,
2002-05-23, 02:59:00,VALID,918.012,VALID,0,VALID,98.2098,VALID,-0.0509425,VALID,19.1158,VALID,84,VALID,0.351563,
2002-05-23, 03:00:00,VALID,917.987,VALID,0,VALID,98.2569,VALID,-0.0849042,VALID,19.09,VALID,92,VALID,0.341016,
2002-05-23, 03:01:00,VALID,917.974,VALID,0,VALID,98.3319,VALID,-0.0509425,VALID,19.09,VALID,92,VALID,0.434495,
2002-05-23, 03:02:00,VALID,917.976,VALID,0,VALID,98.3751,VALID,-0.0509425,VALID,19.0833,VALID,83,VALID,0.789063,
2002-05-23, 03:03:00,VALID,917.974,VALID,0,VALID,98.4311,VALID,-0.0679233,VALID,19.0967,VALID,64,VALID,1.04241,
2002-05-23, 03:04:00,VALID,917.955,VALID,0,VALID,98.4553,VALID,-0.0849042,VALID,19.1001,VALID,48,VALID,0.91582,
2002-05-23, 03:05:00,VALID,917.959,VALID,0,VALID,98.4807,VALID,-0.0339617,VALID,19.0768,VALID,33,VALID,0.76454,
2002-05-23, 03:06:00,VALID,917.946,VALID,0,VALID,98.5061,VALID,-0.0169808,VALID,19.0867,VALID,34,VALID,0.573191,
2002-05-23, 03:07:00,VALID,917.945,VALID,0,VALID,98.515,VALID,0,VALID,19.0637,VALID,49,VALID,0.501267,
2002-05-23, 03:08:00,VALID,917.924,VALID,0,VALID,98.515,VALID,-0.0849042,VALID,19.0544,VALID,59,VALID,0.516242,
2002-05-23, 03:09:00,VALID,917.906,VALID,0,VALID,98.5532,VALID,-0.0339617,VALID,19.0475,VALID,60,VALID,0.386102,
2002-05-23, 03:10:00,VALID,917.883,VALID,0,VALID,98.5697,VALID,0.0509425,VALID,19.0369,VALID,84,VALID,0.54962,
2002-05-23, 03:11:00,VALID,917.856,VALID,0,VALID,98.6333,VALID,0.101885,VALID,19.0269,VALID,114,VALID,0.768429,
2002-05-23, 03:12:00,VALID,917.834,VALID,0,VALID,98.7019,VALID,0.0169808,VALID,19.0306,VALID,141,VALID,0.865748,
2002-05-23, 03:13:00,VALID,917.818,VALID,0,VALID,98.7833,VALID,0.0679233,VALID,19.0334,VALID,143,VALID,1.28125,
2002-05-23, 03:14:00,VALID,917.815,VALID,0,VALID,98.8291,VALID,0.0339617,VALID,19.05,VALID,138,VALID,1.25341,
2002-05-23, 03:15:00,VALID,917.799,VALID,0,VALID,98.8634,VALID,0.0679233,VALID,19.0329,VALID,149,VALID,1.40865,
2002-05-23, 03:16:00,VALID,917.792,VALID,0,VALID,98.9168,VALID,0.0509425,VALID,19.0433,VALID,107,VALID,0.606847,
2002-05-23, 03:17:00,VALID,917.794,VALID,0,VALID,98.9461,VALID,0.101885,VALID,19.0304,VALID,40,VALID,0.324013,
2002-05-23, 03:18:00,VALID,917.795,VALID,0,VALID,98.9766,VALID,0.0679233,VALID,19.047,VALID,101,VALID,0.264147,
2002-05-23, 03:19:00,VALID,917.788,VALID,0,VALID,98.9842,VALID,0.0339617,VALID,19.0309,VALID,125,VALID,0.494792,
2002-05-23, 03:20:00,VALID,917.791,VALID,0,VALID,99.0122,VALID,0.0509425,VALID,19.0078,VALID,135,VALID,0.2398,
2002-05-23, 03:21:00,VALID,917.786,VALID,0,VALID,99.0504,VALID,0.0679233,VALID,19.0105,VALID,151,VALID,0.494038,
2002-05-23, 03:22:00,VALID,917.787,VALID,0,VALID,99.0771,VALID,0.0169808,VALID,19.0279,VALID,127,VALID,0.41913,
2002-05-23, 03:23:00,VALID,917.779,VALID,0,VALID,99.0898,VALID,0.0509425,VALID,19.0408,VALID,102,VALID,0.584598,
2002-05-23, 03:24:00,VALID,917.795,VALID,0,VALID,99.0809,VALID,0,VALID,19.0217,VALID,86,VALID,0.456292,
2002-05-23, 03:25:00,VALID,917.798,VALID,0,VALID,99.0961,VALID,-0.0679233,VALID,19.0326,VALID,74,VALID,0.503806,
2002-05-23, 03:26:00,VALID,917.799,VALID,0,VALID,99.0949,VALID,-0.0509425,VALID,19.0259,VALID,88,VALID,0.824414,
2002-05-23, 03:27:00,VALID,917.815,VALID,0,VALID,99.1038,VALID,-0.0849042,VALID,19.0229,VALID,80,VALID,0.695713,
2002-05-23, 03:28:00,VALID,917.822,VALID,0,VALID,99.0872,VALID,-0.0339617,VALID,18.9933,VALID,84,VALID,0.660857,
2002-05-23, 03:29:00,VALID,917.833,VALID,0,VALID,99.0987,VALID,-0.101885,VALID,18.9804,VALID,98,VALID,0.704464,
2002-05-23, 03:30:00,VALID,917.832,VALID,0,VALID,99.0961,VALID,-0.0679233,VALID,18.9744,VALID,91,VALID,0.876953,
2002-05-23, 03:31:00,VALID,917.828,VALID,0,VALID,99.1063,VALID,-0.0509425,VALID,18.9416,VALID,81,VALID,0.90191,